Regional Weather Roundup
Issued by NWS Kansas City/Pleasant Hill, MO

Home | Current Version | Previous Version | Graphics & Text | Print | Product List | Glossary Off
Versions: 1 2 3 4 5 6 7 8 9 10 11 12 13 14 15 16 17 18 19 20 21 22 23 24 25 26 27 28 29 30 31 32 33 34 35 36 37 38 39 40 41 42 43 44 45 46 47 48 49 50

000
ASUS43 KEAX 220810
RWREAX

WEATHER ROUNDUP FOR EASTERN KANSAS AND NORTHWEST MISSOURI
NATIONAL WEATHER SERVICE KANSAS CITY/PLEASANT HILL MO
300 AM CDT FRI AUG 22 2014

KSZ040-057-103>105-MOZ028-029-037-043-220900-
...KANSAS CITY METROPOLITAN AREA...

CITY           SKY/WX    TMP DP  RH WIND       PRES   REMARKS
K.C. INTL      MOCLDY    81  71  71 SW12      29.92R
K.C. DOWNTOWN  PTCLDY    83  71  67 S13G23    29.90R
LEES SUMMIT    CLEAR     79  71  76 S12       29.93S
OLATHE - IXD   PTCLDY    79  71  76 S12       29.92S
OLATHE - OJC   PTCLDY    78  71  79 S9        29.92S
LAWRENCE       MOCLDY    84  71  65 CALM      29.91R

$$

MOZ001>008-011>017-020>025-030>033-038>040-044>046-053-054-220900-
...NORTHERN AND CENTRAL MISSOURI...

CITY           SKY/WX    TMP DP  RH WIND       PRES   REMARKS
ST. JOSEPH     MOCLDY    80  73  79 S7        29.90R
MOSBY          MOSUNNY   81  70  69 S5        29.91R
WHITEMAN AFB   CLEAR     76  55  47 SW9       29.94F
CLINTON        CLEAR     79  72  78 S8        29.95F
SEDALIA        CLEAR     80  70  71 SW13      29.96F
WARSAW         NOT AVBL
MARSHALL       CLEAR     79  73  83 SW8       29.94S
CHILLICOTHE      N/A     81  72  74 S9        29.91R
MOBERLY        CLEAR     81  68  65 SW15      29.94F
KIRKSVILLE     CLEAR     81  71  71 SW12      29.92S

$$

MOZ041-047>049-056>058-063>065-088>090-097-220900-
...EASTERN AND SOUTHERN MISSOURI...

CITY           SKY/WX    TMP DP  RH WIND       PRES   REMARKS
ST. LOUIS INTL CLEAR     84  68  58 SW14      29.95F
SPIRIT OF STL  CLEAR     80  68  66 SW8       29.94F
COLUMBIA       CLEAR     78  70  76 S10       29.96F
JEFFERSON CITY CLEAR     79  69  71 S6        29.95F
MEXICO         CLEAR     79  75  89 SW10      29.94F
HANNIBAL       CLEAR     81  70  69 SW10G16   29.92R
ROLLA          CLEAR     74  67  78 SW9       29.99F
LEBANON        CLEAR     75  68  78 S7        30.02F
OSAGE BEACH    CLEAR     77  68  73 S7        29.98F
SPRINGFIELD    CLEAR     76  70  82 S10       30.01F
BRANSON        CLEAR     73  70  88 SE5       30.05S
NEVADA         CLEAR     73  70  88 S6        29.96F
JOPLIN         CLEAR     79  71  76 S13       29.98F
WEST PLAINS    CLEAR     73  68  84 CALM      30.06S

$$

IAZ060-094-KSZ022-034>040-054-083-096-NEZ052-066-093-220900-
...KANSAS...SOUTHEAST NEBRASKA AND IOWA...

CITY           SKY/WX    TMP DP  RH WIND       PRES   REMARKS
TOPEKA         CLOUDY    84  73  69 S7        29.89F HX  90
MANHATTAN      CLOUDY    82  71  69 S7        29.86F
EMPORIA        CLEAR     79  70  74 S16       29.90F
CHANUTE        CLEAR     80  70  71 S12       29.94F
WICHITA        PTCLDY    81  69  67 S13       29.91F
OMAHA          CLOUDY    76  71  85 CALM      29.87R
LINCOLN        CLOUDY    76  71  85 CALM      29.89R
FALLS CITY     CLOUDY    81  72  74 SW5       29.89R
LAMONI         CLOUDY    79  73  82 W12       29.91R
DES MOINES     CLOUDY    80  73  79 W22G31    29.89R THUNDER

$$




USA.gov is the U.S. government's official web portal to all federal, state and local government web resources and services.